Joplin, MO

1:33 AM CST on November 15, 2019 (GMT -0600)
Joplin Regional

Weather History for KJLN - September, 2019

Change the Weather History Date:

Friday, September 6, 2019

  Actual Average Record
Temperature  
Mean Temperature 80 °F 75 °F  
Max Temperature 91 °F 86 °F 101 °F (1954)
Min Temperature 69 °F 63 °F 44 °F (1988)
Degree Days  
Heating Degree Days 0 0  
Month to date heating degree days 0 0  
Since 1 July heating degree days 0 1  
Cooling Degree Days 15 10  
Month to date cooling degree days 85 65  
Year to date cooling degree days 1336 1492  
Growing Degree Days 30 (Base 50)    
Moisture  
Dew Point 70 °F    
Average Humidity 70    
Maximum Humidity 90    
Minimum Humidity 52    
Precipitation  
Precipitation 0.00 in 0.15 in 1.31 in (1949)
Month to date precipitation 0.00 0.95  
Year to date precipitation 48.89 31.92  
Sea Level Pressure  
Sea Level Pressure 30.01 in    
Wind  
Wind Speed 6 mph ()    
Max Wind Speed 15 mph    
Max Gust Speed 22 mph    
Visibility 10.0 miles    
Events      
T = Trace of Precipitation, MM = Missing Value Source: Averaged Metar Reports

Daily Weather History Graph

Daily Weather History Graph

Search for Another Location

Airport or City:

Astronomy

Sep. 06, 2019 Rise Set
Actual Time 6:52 AM CDT 7:39 PM CDT
Civil Twilight 6:26 AM CDT 8:05 PM CDT
Nautical Twilight 5:54 AM CDT 8:37 PM CDT
Astronomical Twilight 5:22 AM CDT 9:09 PM CDT
Moon 2:51 PM CDT (9/6) 12:07 AM CDT (9/6)
Length of Visible Light 13h 39m
Length of Day
12h 46m
First Quarter, 56% of the Moon is Illuminated
Sep 6
First Quarter
Sep 13
Full
Sep 21
Last Quarter
Sep 28
New
Oct 5
First Quarter

Hourly Weather History & Observations

Time (CDT) Temp. Heat Index Dew Point Humidity Pressure Visibility Wind Dir Wind Speed Gust Speed Precip Events Conditions
12:53 AM 73.0 °F - 68.0 °F 84% 29.99 in 10.0 mi SSW 6.9 mph - N/A   Clear
1:53 AM 73.0 °F - 68.0 °F 84% 30.00 in 10.0 mi South 4.6 mph - N/A   Clear
2:53 AM 73.0 °F - 66.9 °F 81% 30.00 in 10.0 mi South 3.5 mph - N/A   Clear
4:53 AM 70.0 °F - 66.9 °F 90% 30.00 in 10.0 mi South 6.9 mph - N/A   Clear
6:53 AM 70.0 °F - 66.0 °F 87% 30.04 in 10.0 mi South 4.6 mph - N/A   Clear
7:53 AM 73.0 °F - 68.0 °F 84% 30.04 in 10.0 mi SSW 8.1 mph - N/A   Clear
8:53 AM 79.0 °F - 69.1 °F 72% 30.04 in 10.0 mi SSW 8.1 mph - N/A   Clear
9:53 AM 82.9 °F 85.8 °F 68.0 °F 60% 30.04 in 10.0 mi WSW 8.1 mph - N/A   Clear
10:53 AM 84.9 °F 88.8 °F 69.1 °F 59% 30.04 in 10.0 mi WSW 12.7 mph - N/A   Clear
11:53 AM 87.1 °F 92.0 °F 70.0 °F 57% 30.03 in 10.0 mi WSW 10.4 mph - N/A   Clear
12:53 PM 88.0 °F 92.9 °F 70.0 °F 55% 30.01 in 10.0 mi West 12.7 mph - N/A   Clear
1:53 PM 90.0 °F 96.4 °F 71.1 °F 54% 30.00 in 10.0 mi SW 10.4 mph - N/A   Clear
2:53 PM 90.0 °F 96.4 °F 71.1 °F 54% 29.99 in 10.0 mi SW 10.4 mph - N/A   Clear
3:53 PM 91.0 °F 97.6 °F 71.1 °F 52% 29.98 in 10.0 mi Variable 4.6 mph - N/A   Clear
4:53 PM 90.0 °F 96.9 °F 72.0 °F 55% 29.97 in 10.0 mi Variable 4.6 mph - N/A   Clear
5:53 PM 90.0 °F 96.9 °F 72.0 °F 55% 29.97 in 10.0 mi Variable 4.6 mph - N/A   Clear
6:53 PM 87.1 °F 94.5 °F 73.0 °F 63% 29.98 in 10.0 mi Variable 3.5 mph - N/A   Clear
7:53 PM 81.0 °F 85.8 °F 73.0 °F 77% 29.99 in 10.0 mi Variable 3.5 mph - N/A   Clear
8:53 PM 79.0 °F - 73.0 °F 82% 30.00 in 10.0 mi NNE 5.8 mph - N/A   Clear
9:53 PM 78.1 °F - 73.0 °F 84% 30.01 in 10.0 mi NE 6.9 mph - N/A   Clear
11:53 PM 75.0 °F - 70.0 °F 84% 30.02 in 10.0 mi NE 5.8 mph - N/A   Clear